Theta_e
312 313 314 314 314 314 314 308 305 304 305 305 303 302 303 303 302 302 302 307 309 304 305 306 308 308 308 305 304 302 307 306 307 305 306 302 306 302 302 308 311 314 311 313 319
314 312 313 314 314 314 314 308 304 303 304 304 303 302 302 303 303 301 302 303 303 303 305 305 305 306 304 305 304 304 305 306 304 303 304 302 304 301 306 306 309 314 315 316 320
316 314 314 314 314 314 314 308 303 302 302 304 302 301 302 304 303 300 302 303 303 303 304 305 305 305 306 304 304 304 305 304 303 304 302 302 304 299 304 306 305 308 315 317 319
316 315 314 314 314 313 314 309 302 302 301 302 302 301 304 305 307 301 302 303 303 304 304 304 303 305 304 305 304 304 303 303 303 301 302 302 300 301 301 303 301 304 313 316 317
316 316 315 314 314 314 313 311 302 302 301 301 302 302 304 299 299 302 303 303 304 304 303 302 302 303 305 304 304 304 303 302 301 301 302 301 301 302 301 299 310 312 314 315 315
316 316 315 315 314 313 313 313 305 302 301 301 302 303 304 302 301 302 303 303 304 304 303 302 302 301 302 302 303 302 302 302 302 301 302 303 301 302 299 301 313 314 314 313 314
315 315 315 315 314 313 313 312 306 303 301 302 303 302 300 300 302 302 303 304 303 304 303 304 304 303 301 303 301 301 303 302 302 301 303 301 303 302 298 298 312 313 313 312 312
315 314 314 314 313 313 310 305 305 304 302 302 303 302 300 302 302 303 303 303 303 303 304 304 303 301 302 301 302 301 299 301 303 301 303 301 303 302 298 298 300 307 308 307 304
314 314 314 313 313 311 307 303 304 306 303 303 304 302 302 303 303 303 303 304 305 306 306 305 304 301 303 302 301 302 303 309 305 301 300 304 303 303 298 299 297 298 299 299 299
313 313 313 313 304 306 305 304 304 304 304 304 303 304 301 301 302 302 304 304 305 305 305 304 301 301 299 301 303 306 309 306 308 302 300 303 303 301 300 299 298 296 298 299 299
312 312 313 310 303 305 305 308 303 301 300 300 300 301 301 302 303 303 303 304 305 304 306 304 303 302 302 302 303 304 306 307 305 300 300 301 299 300 299 298 298 297 297 298 298
312 312 311 311 304 304 303 300 300 300 301 300 301 301 302 301 302 302 304 303 303 304 303 304 304 302 302 302 303 304 307 304 302 300 299 298 299 299 298 298 297 297 296 297 297
312 313 311 311 305 303 302 302 302 302 300 299 299 301 300 301 301 301 301 303 300 301 300 303 302 301 302 299 304 300 302 301 301 298 295 294 301 299 298 296 297 296 296 296 297
312 312 310 310 305 304 302 302 302 301 297 299 301 301 300 299 302 301 300 301 301 300 300 300 298 301 301 299 300 306 297 299 298 297 299 292 300 296 294 294 295 295 295 295 295
311 309 304 305 304 302 302 303 303 300 298 298 299 301 299 300 299 300 299 299 301 299 299 300 299 299 299 298 298 301 298 299 296 291 292 292 292 295 292 295 295 294 293 293 293
303 304 304 304 303 303 304 305 301 298 295 296 298 300 300 297 297 296 297 298 297 299 298 299 297 297 298 297 298 296 295 292 291 288 292 284 289 297 295 296 295 294 292 292 292
300 301 302 302 301 303 305 301 300 298 293 297 300 300 299 299 298 297 298 297 298 294 294 295 299 296 295 299 297 293 291 291 294 291 295 276 292 299 297 295 295 293 292 290 291
302 300 299 299 302 304 300 298 296 289 292 299 300 299 299 297 297 296 299 297 296 295 291 290 293 294 294 296 298 296 289 292 288 292 292 278 292 297 295 292 291 291 290 291 291
303 301 299 297 299 301 297 296 295 295 301 302 300 294 293 296 296 294 297 297 297 296 295 291 294 295 295 293 293 293 290 289 283 273 286 289 290 293 293 290 290 291 291 291 290
304 301 298 298 298 298 296 295 294 297 300 300 299 295 291 291 296 292 293 297 298 296 291 294 292 288 295 294 291 292 290 292 287 289 288 289 282 295 290 289 289 291 288 288 290
301 297 298 299 297 294 296 286 291 295 298 301 300 293 298 294 296 292 296 297 297 296 293 288 288 291 293 288 288 290 289 289 288 289 290 288 294 289 285 282 286 286 287 284 285
297 299 297 297 297 275 287 286 296 300 299 300 298 297 294 295 295 289 297 295 296 294 297 296 292 290 291 291 292 292 290 292 292 287 286 290 292 289 282 276 274 284 286 286 283
291 291 295 297 297 286 287 292 297 299 299 299 298 297 294 290 291 296 297 297 297 296 297 295 288 287 294 291 290 291 292 289 286 290 289 291 294 282 275 279 278 281 285 284 284
292 299 292 289 287 293 289 292 295 296 299 298 299 297 296 289 292 290 295 297 296 296 299 295 293 289 292 290 284 290 291 291 289 285 292 292 295 294 291 288 290 290 286 281 281
289 291 289 292 291 292 293 293 295 295 297 297 293 297 294 291 291 288 294 295 297 298 295 293 289 290 288 284 283 287 289 289 289 290 290 295 286 292 292 288 286 281 279 282 284
293 293 287 287 293 295 295 294 294 292 296 297 294 296 294 290 293 294 294 294 294 296 296 292 286 283 286 287 289 290 291 291 290 291 285 290 290 278 280 273 280 285 284 282 284
294 293 293 292 293 293 293 294 295 294 295 296 296 295 296 295 294 293 292 292 293 293 294 287 282 281 286 282 282 287 285 286 285 280 284 286 285 275 283 285 287 287 285 283 285
Wind_Speed
13 13 13 15 17 18 19 20 19 17 15 12 10 9 8 10 9 14 10 12 11 13 9 3 5 5 5 4 4 2 4 1 1 3 2 5 3 4 4 2 2 2 1 1 15
13 12 13 14 16 16 17 19 18 15 13 11 9 8 4 4 8 17 14 13 11 10 6 7 4 6 4 3 4 4 3 2 0 0 1 4 3 4 2 2 1 1 3 5 18
12 11 12 12 14 16 16 18 17 14 12 11 9 7 4 2 3 5 18 14 10 7 5 4 3 2 4 3 4 1 3 1 2 2 1 4 1 4 2 2 1 3 2 8 10
11 9 10 11 14 15 16 17 15 13 12 10 8 6 4 3 2 9 16 12 8 6 4 3 5 3 3 4 2 4 2 1 1 3 1 2 5 2 2 0 5 7 4 10 11
8 8 10 11 13 14 17 15 14 13 11 9 8 5 3 6 2 14 14 10 6 5 8 3 4 2 4 3 3 3 1 3 1 4 1 2 0 2 3 4 4 3 7 8 9
6 7 9 11 14 16 16 13 13 11 10 9 8 4 3 6 7 15 11 9 10 9 8 7 2 1 5 3 4 1 2 2 4 5 2 1 1 2 2 3 3 4 4 4 7
5 7 9 10 13 15 13 12 11 9 9 8 8 8 13 1 7 15 8 10 9 7 4 5 1 3 1 3 3 2 1 2 6 5 2 2 1 4 2 3 4 4 5 4 4
5 8 9 11 13 14 12 11 7 6 7 6 7 4 4 8 6 17 12 8 7 6 5 5 5 5 4 2 6 4 4 4 2 7 3 1 6 2 3 2 5 6 5 4 3
7 9 10 12 13 12 9 10 8 4 7 6 5 5 3 5 8 16 12 7 5 5 6 4 5 4 6 4 4 7 1 2 5 3 4 1 5 3 1 3 6 5 3 3 3
9 10 10 11 14 9 4 2 16 8 4 4 13 4 8 6 10 14 9 8 4 2 4 7 5 4 5 5 2 2 2 3 4 5 5 4 10 6 4 3 7 5 4 4 3
9 12 11 11 15 8 3 1 5 7 16 5 2 3 4 14 5 15 16 5 4 8 5 5 8 4 4 4 2 1 2 3 2 4 5 3 7 13 7 6 7 5 5 4 4
8 11 10 11 12 8 11 8 2 3 6 8 3 3 3 8 6 19 15 6 7 4 6 6 4 4 4 4 4 5 2 4 5 4 3 6 14 13 8 6 4 5 5 6 3
8 10 9 7 7 16 20 9 5 2 5 6 4 4 5 8 4 9 9 3 6 6 7 6 3 5 3 6 4 3 2 3 4 7 3 7 7 7 3 3 1 2 3 4 5
7 8 8 4 3 6 6 5 4 2 5 11 8 6 5 4 5 5 9 3 7 2 4 6 6 4 4 5 4 3 4 3 4 5 3 6 4 7 5 9 5 6 5 4 3
6 5 9 11 4 4 2 2 2 1 6 9 9 8 7 7 4 8 8 7 5 4 4 3 6 6 8 2 3 2 4 3 3 4 4 8 4 9 5 6 6 7 7 6 4
9 5 4 4 9 5 2 2 2 7 1 6 5 7 5 7 7 7 7 10 3 4 6 2 1 3 2 2 0 2 1 5 4 3 3 3 3 7 3 2 5 5 7 6 5
11 12 9 8 4 4 1 2 5 7 3 7 4 6 1 6 6 8 5 7 4 5 5 5 3 3 3 3 2 6 6 4 6 4 4 3 2 9 6 4 3 8 11 8 5
7 8 10 11 6 3 2 6 9 3 5 2 2 2 5 7 5 8 3 4 6 5 3 3 7 5 6 3 1 5 4 4 5 2 5 3 5 5 2 5 6 7 7 7 4
5 4 4 12 6 2 5 6 7 6 1 3 2 6 5 3 1 4 5 2 2 3 4 3 4 2 2 2 3 1 4 3 7 1 3 3 7 10 2 5 7 7 6 7 6
4 2 4 12 5 2 5 3 2 1 1 0 2 2 1 5 4 5 2 2 1 2 3 3 4 1 4 1 4 4 3 4 3 3 5 4 6 5 6 7 9 10 9 8 7
4 3 5 9 2 6 4 5 3 4 1 1 2 1 2 1 0 1 1 1 1 2 3 4 3 4 2 2 4 2 2 4 3 3 4 2 5 7 6 4 6 7 8 8 10
2 3 7 5 4 1 2 5 4 2 0 1 1 2 3 3 1 0 1 4 1 3 2 1 4 3 8 2 2 2 5 4 4 5 2 1 7 3 6 4 3 9 10 9 7
2 2 4 3 3 2 3 2 1 1 2 3 2 1 2 3 3 1 1 1 2 1 2 3 2 4 9 3 3 2 4 3 3 2 7 3 6 1 2 6 6 8 12 11 10
3 2 4 6 1 7 4 1 1 1 0 1 2 2 2 3 1 2 1 2 1 1 3 2 2 7 6 7 3 4 4 5 5 3 4 8 21 17 12 12 16 16 10 10 11
4 1 1 1 3 3 3 5 3 2 2 1 3 3 4 0 1 2 3 1 1 1 2 3 4 1 5 5 3 5 10 8 10 10 5 23 5 16 14 9 9 8 10 11 13
3 4 2 1 1 3 1 6 7 3 5 3 3 2 4 4 4 2 2 3 3 1 3 2 2 2 5 3 3 6 17 8 12 10 8 16 18 2 6 5 7 12 10 11 13
3 3 3 2 2 3 4 5 6 6 2 1 3 3 2 4 3 3 3 1 1 6 5 3 4 3 5 4 7 7 8 5 3 5 6 4 6 4 6 10 14 15 12 12 16
Wind_Direction
359 360 5 4 2 1 3 3 4 7 8 10 12 14 31 56 67 63 46 339 325 339 358 19 57 49 52 58 44 124 63 126 210 155 323 346 32 4 307 101 52 39 92 240 165
348 351 358 5 359 1 2 3 3 5 7 7 13 14 13 35 57 55 5 352 347 355 21 44 17 26 44 35 17 71 87 202 94 100 319 322 18 316 11 23 129 175 44 126 158
349 343 354 1 2 356 360 4 3 7 10 6 8 10 18 35 63 345 356 357 7 6 18 40 35 44 66 37 11 91 119 193 22 358 320 318 51 307 353 30 323 306 141 161 164
345 348 351 357 358 360 0 4 3 6 12 10 11 15 48 34 75 342 353 3 15 14 34 31 34 51 68 78 32 90 71 43 352 355 6 357 299 12 353 267 304 275 187 170 180
340 350 348 354 355 353 355 359 3 5 13 18 14 11 67 50 8 346 357 15 28 54 45 39 54 85 96 104 95 76 91 67 18 37 31 275 324 274 294 348 356 101 139 165 183
345 352 345 351 352 350 347 351 358 5 13 18 29 36 65 73 344 354 360 31 40 53 43 37 95 119 97 68 81 104 91 78 20 1 25 21 269 357 169 326 70 125 155 176 193
359 351 349 348 348 349 352 349 348 358 13 22 35 71 61 138 358 10 18 35 38 53 74 48 49 86 101 86 354 68 43 9 17 342 331 304 205 228 305 306 160 173 191 194 205
4 355 353 348 346 351 354 354 359 6 15 22 33 73 96 12 11 16 25 40 55 66 84 62 67 97 56 116 27 48 44 15 352 358 311 43 268 246 326 257 229 208 209 197 171
10 360 355 349 347 353 357 46 23 39 39 38 35 72 31 353 11 360 3 5 24 58 54 69 73 76 22 58 21 12 153 313 316 59 308 344 263 228 334 255 250 229 211 189 163
14 3 8 6 1 356 11 127 54 45 13 23 29 46 15 316 325 343 360 8 17 3 17 38 49 68 32 49 200 281 358 297 260 337 345 292 269 281 263 270 258 238 228 228 223
28 17 29 18 12 357 23 310 21 3 34 79 317 103 308 334 16 4 358 350 23 53 38 4 65 48 346 334 341 323 291 294 317 9 333 314 291 288 282 264 265 248 237 242 264
30 17 14 12 25 32 59 75 106 131 72 34 33 25 349 347 11 351 8 54 47 44 341 31 74 335 291 7 62 32 341 316 296 10 345 3 300 279 270 251 220 241 238 241 266
14 11 7 23 40 53 73 74 72 85 83 18 5 11 334 356 47 338 18 39 68 46 16 86 341 323 53 30 35 47 37 347 257 318 87 322 309 322 332 340 312 202 214 216 225
22 17 26 7 58 39 52 48 44 68 72 333 344 357 348 342 43 350 14 70 35 96 44 69 328 20 52 71 5 31 334 311 346 28 295 7 288 297 333 307 270 270 252 264 289
23 43 43 50 90 64 44 18 34 91 53 315 312 320 348 72 310 359 13 30 70 22 67 279 9 17 50 321 340 280 29 34 65 78 42 1 79 273 352 324 357 351 290 264 264
41 23 359 28 63 69 51 57 28 43 286 337 324 348 12 16 4 314 17 39 139 87 43 125 140 67 221 260 200 284 34 43 56 79 25 291 82 286 290 323 316 306 335 284 253
34 38 48 47 33 8 21 44 41 88 347 308 330 1 71 350 1 23 35 19 51 56 1 355 2 338 13 319 18 41 45 348 357 12 223 305 11 247 300 294 270 317 320 325 277
12 18 37 38 20 11 343 50 68 249 237 10 320 313 51 359 18 354 53 41 32 49 83 90 336 8 357 52 323 40 119 145 233 264 275 16 233 241 246 295 310 295 296 313 283
341 356 33 2 1 353 72 51 182 197 354 320 317 53 336 25 126 57 38 76 34 33 111 63 295 341 13 343 67 286 49 157 99 91 39 278 288 309 324 34 8 338 345 342 307
343 352 18 356 4 28 70 151 118 289 341 348 106 101 328 309 26 43 358 269 107 57 130 182 353 269 294 6 41 120 153 33 9 340 306 305 274 243 326 331 341 1 351 320 293
339 34 352 351 27 47 108 206 218 226 195 49 156 120 212 260 348 285 252 204 204 122 95 132 97 289 27 176 184 27 18 43 118 131 199 269 255 214 219 227 286 318 311 299 300
63 21 342 355 44 43 91 188 212 182 191 184 131 116 178 159 252 61 260 202 233 148 128 186 136 257 228 137 143 167 190 166 128 268 234 193 270 190 215 235 228 297 295 294 278
101 231 348 6 99 350 297 320 279 153 169 173 156 66 106 166 31 249 245 119 183 172 169 174 322 356 338 22 7 206 205 146 116 80 211 150 260 29 337 310 270 271 301 305 300
77 20 335 53 354 128 134 252 285 325 200 153 122 118 144 30 28 248 261 153 157 172 107 118 150 177 203 215 143 263 207 193 148 148 237 223 272 289 318 341 335 326 312 304 297
28 227 201 269 334 94 102 138 137 231 318 54 352 206 162 94 330 240 242 244 66 12 71 111 201 279 260 238 216 253 254 204 199 229 215 276 258 286 316 314 289 289 294 311 316
131 136 358 126 9 119 6 208 177 240 151 242 170 171 168 176 198 244 172 218 216 352 147 30 240 110 294 340 297 268 266 238 233 251 259 279 282 329 254 297 309 313 311 315 313
131 123 119 327 97 98 221 183 208 147 197 82 174 124 212 242 223 261 246 310 153 166 166 104 128 77 261 343 330 303 247 174 203 217 163 221 248 278 334 340 328 311 319 313 314